• In France
  • List of Countries
  • For 7 days
  • Water Temperature
  • Satellite Maps
  • Weather Map
  • Weather Widgets
  • user-avatar
    Login

    Hourly Weather Armagh

    Today, 22 November, Wednesday

    Time Temperature Precipitation Wind Pressure Humidity
    00:00 +9°C° 0 mm 6 mps 741 mmHg 91%
    01:00 +9°C° 0.3 mm 5 mps 740 mmHg 92%
    02:00 +10°C° 0.3 mm 4 mps 739 mmHg 93%
    03:00 +10°C° 0.3 mm 3 mps 739 mmHg 94%
    04:00 +9°C° 1.4 mm 3 mps 738 mmHg 95%
    05:00 +9°C° 1.4 mm 2 mps 737 mmHg 96%
    06:00 +8°C° 0 mm 2 mps 736 mmHg 94%
    07:00 +7°C° 2.6 mm 2 mps 736 mmHg 95%
    08:00 +7°C° 2.6 mm 2 mps 735 mmHg 95%
    09:00 +6°C° 2.6 mm 2 mps 734 mmHg 96%
    10:00 +6°C° 1.3 mm 2 mps 734 mmHg 95%
    11:00 +6°C° 1.3 mm 2 mps 733 mmHg 94%
    12:00 +7°C° 0 mm 2 mps 733 mmHg 93%
    13:00 +7°C° 0.1 mm 2 mps 733 mmHg 93%
    14:00 +7°C° 0.1 mm 2 mps 733 mmHg 92%
    15:00 +7°C° 0.1 mm 2 mps 732 mmHg 92%
    16:00 +6°C° 0.1 mm 2 mps 732 mmHg 92%
    17:00 +6°C° 0.1 mm 2 mps 732 mmHg 92%
    18:00 +6°C° 0.1 mm 2 mps 731 mmHg 93%
    19:00 +5°C° 0 mm 2 mps 731 mmHg 92%
    20:00 +5°C° 0 mm 2 mps 731 mmHg 92%
    21:00 +4°C° 0 mm 2 mps 731 mmHg 91%
    22:00 +4°C° 0.1 mm 2 mps 730 mmHg 90%
    23:00 +2°C° 0.1 mm 3 mps 730 mmHg 89%

    Tomorrow, 23 November, Thursday

    Time Temperature Precipitation Wind Pressure Humidity
    00:00 +2°C° 0.1 mm 3 mps 730 mmHg 88%
    01:00 +1°C° 0 mm 4 mps 730 mmHg 88%
    02:00 +1°C° 0 mm 4 mps 730 mmHg 89%
    03:00 +1°C° 0 mm 5 mps 730 mmHg 89%
    04:00 +1°C° 0 mm 5 mps 730 mmHg 89%
    05:00 +2°C° 0 mm 5 mps 730 mmHg 88%
    06:00 +2°C° 0 mm 5 mps 730 mmHg 88%
    07:00 +2°C° 0 mm 6 mps 731 mmHg 87%
    08:00 +2°C° 0 mm 6 mps 733 mmHg 85%
    09:00 +3°C° 0 mm 7 mps 734 mmHg 84%
    10:00 +3°C° 0.1 mm 7 mps 736 mmHg 81%
    11:00 +3°C° 0.1 mm 7 mps 738 mmHg 78%
    12:00 +4°C° 0.1 mm 7 mps 739 mmHg 76%
    13:00 +3°C° 0.2 mm 6 mps 741 mmHg 76%
    14:00 +3°C° 0.2 mm 6 mps 742 mmHg 76%
    15:00 +3°C° 0.2 mm 5 mps 743 mmHg 76%
    16:00 +2°C° 0 mm 5 mps 744 mmHg 79%
    17:00 +1°C° 0 mm 4 mps 745 mmHg 82%
    18:00 0°C° 0 mm 4 mps 746 mmHg 84%
    19:00 0°C° 0 mm 4 mps 746 mmHg 85%
    20:00 0°C° 0 mm 3 mps 747 mmHg 86%
    21:00 0°C° 0 mm 3 mps 748 mmHg 88%
    22:00 0°C° 0 mm 3 mps 748 mmHg 88%
    23:00 0°C° 0 mm 3 mps 748 mmHg 88%

    Day after tomorrow, 24 November, Friday

    Time Temperature Precipitation Wind Pressure Humidity
    00:00 0°C° 0 mm 3 mps 748 mmHg 88%
    01:00 -1°C° 0 mm 3 mps 749 mmHg 88%
    02:00 -1°C° 0 mm 3 mps 749 mmHg 88%
    03:00 -1°C° 0 mm 3 mps 749 mmHg 88%
    04:00 -1°C° 0 mm 3 mps 750 mmHg 88%
    05:00 -1°C° 0 mm 3 mps 750 mmHg 88%
    06:00 -1°C° 0 mm 3 mps 750 mmHg 88%
    07:00 -1°C° 0 mm 3 mps 751 mmHg 87%
    08:00 0°C° 0 mm 3 mps 751 mmHg 85%
    09:00 -1°C° 0 mm 4 mps 751 mmHg 84%
    10:00 0°C° 0 mm 4 mps 752 mmHg 78%
    11:00 +1°C° 0 mm 5 mps 752 mmHg 72%
    12:00 +2°C° 0 mm 5 mps 752 mmHg 66%
    13:00 +2°C° 0 mm 5 mps 752 mmHg 66%
    14:00 +1°C° 0 mm 5 mps 752 mmHg 67%
    15:00 +1°C° 0 mm 5 mps 752 mmHg 67%
    16:00 +1°C° 0.1 mm 5 mps 752 mmHg 70%
    17:00 0°C° 0.1 mm 5 mps 753 mmHg 73%
    18:00 0°C° 0.1 mm 4 mps 753 mmHg 76%
    19:00 -1°C° 0 mm 5 mps 753 mmHg 76%
    20:00 -1°C° 0 mm 5 mps 753 mmHg 77%
    21:00 -1°C° 0 mm 5 mps 754 mmHg 77%
    22:00 -1°C° 0.1 mm 5 mps 754 mmHg 77%
    23:00 -1°C° 0.1 mm 6 mps 754 mmHg 77%

    25 November, Saturday

    Time Temperature Precipitation Wind Pressure Humidity
    00:00 -1°C° 0.1 mm 6 mps 754 mmHg 77%
    01:00 -1°C° 0 mm 6 mps 754 mmHg 77%
    02:00 -1°C° 0 mm 6 mps 754 mmHg 77%
    03:00 -1°C° 0 mm 6 mps 754 mmHg 77%
    04:00 -1°C° 0 mm 6 mps 754 mmHg 77%
    05:00 -1°C° 0 mm 6 mps 755 mmHg 77%
    06:00 -1°C° 0 mm 6 mps 755 mmHg 77%
    07:00 -1°C° 0 mm 6 mps 755 mmHg 77%
    08:00 0°C° 0 mm 5 mps 756 mmHg 77%
    09:00 0°C° 0 mm 5 mps 756 mmHg 77%
    10:00 +1°C° 0 mm 6 mps 756 mmHg 74%
    11:00 +1°C° 0 mm 6 mps 757 mmHg 71%
    12:00 +2°C° 0 mm 6 mps 757 mmHg 68%
    13:00 +2°C° 0 mm 6 mps 757 mmHg 69%
    14:00 +2°C° 0 mm 6 mps 757 mmHg 71%
    15:00 +1°C° 0 mm 6 mps 757 mmHg 72%
    16:00 +1°C° 0 mm 6 mps 757 mmHg 75%
    17:00 +1°C° 0 mm 6 mps 757 mmHg 77%
    18:00 -1°C° 0 mm 6 mps 757 mmHg 79%
    19:00 +1°C° 0 mm 6 mps 758 mmHg 80%
    20:00 +1°C° 0 mm 6 mps 758 mmHg 81%
    21:00 0°C° 0 mm 7 mps 759 mmHg 82%
    22:00 +2°C° 0.2 mm 6 mps 759 mmHg 83%
    23:00 +2°C° 0.2 mm 6 mps 760 mmHg 83%

    26 November, Sunday

    Time Temperature Precipitation Wind Pressure Humidity
    00:00 +2°C° 0.2 mm 6 mps 760 mmHg 84%
    01:00 +2°C° 0.1 mm 6 mps 760 mmHg 85%
    02:00 +2°C° 0.1 mm 5 mps 761 mmHg 86%
    03:00 +2°C° 0.1 mm 5 mps 761 mmHg 87%
    04:00 +2°C° 0.1 mm 5 mps 761 mmHg 87%
    05:00 +1°C° 0.1 mm 5 mps 762 mmHg 88%
    06:00 +1°C° 0.1 mm 4 mps 762 mmHg 89%
    07:00 +1°C° 0 mm 4 mps 763 mmHg 88%
    08:00 +1°C° 0 mm 5 mps 763 mmHg 88%
    09:00 +1°C° 0 mm 5 mps 764 mmHg 87%
    10:00 +2°C° 0 mm 5 mps 764 mmHg 85%
    11:00 +3°C° 0 mm 5 mps 764 mmHg 82%
    12:00 +3°C° 0 mm 5 mps 765 mmHg 80%
    13:00 +3°C° 0 mm 5 mps 765 mmHg 81%
    14:00 +3°C° 0 mm 5 mps 765 mmHg 82%
    15:00 +4°C° 0 mm 4 mps 765 mmHg 83%
    16:00 +4°C° 0 mm 4 mps 765 mmHg 85%
    17:00 +3°C° 0 mm 4 mps 765 mmHg 88%
    18:00 +3°C° 0 mm 4 mps 765 mmHg 91%
    19:00 +4°C° 0.1 mm 4 mps 764 mmHg 91%
    20:00 +3°C° 0.1 mm 5 mps 764 mmHg 91%
    21:00 +5°C° 0.1 mm 5 mps 764 mmHg 90%
    22:00 +4°C° 0.9 mm 6 mps 763 mmHg 90%
    23:00 +5°C° 0.9 mm 7 mps 762 mmHg 91%

    27 November, Monday

    Time Temperature Precipitation Wind Pressure Humidity
    00:00 +6°C° 0.9 mm 8 mps 761 mmHg 91%
    01:00 +6°C° 0.6 mm 7 mps 761 mmHg 90%
    02:00 +6°C° 0.6 mm 7 mps 761 mmHg 89%
    03:00 +5°C° 0.6 mm 6 mps 761 mmHg 87%
    04:00 +5°C° 0 mm 6 mps 761 mmHg 87%
    05:00 +4°C° 0 mm 6 mps 761 mmHg 87%
    06:00 +5°C° 0 mm 5 mps 761 mmHg 87%
    07:00 +3°C° 0 mm 5 mps 762 mmHg 88%
    08:00 +3°C° 0 mm 5 mps 762 mmHg 88%
    09:00 +3°C° 0 mm 5 mps 762 mmHg 88%
    10:00 +5°C° 0 mm 5 mps 762 mmHg 86%
    11:00 +5°C° 0 mm 5 mps 763 mmHg 84%
    12:00 +6°C° 0 mm 5 mps 763 mmHg 82%
    13:00 +6°C° 0 mm 5 mps 762 mmHg 83%
    14:00 +6°C° 0 mm 5 mps 762 mmHg 84%
    15:00 +6°C° 0 mm 5 mps 762 mmHg 85%
    16:00 +5°C° 0.1 mm 5 mps 762 mmHg 87%
    17:00 +5°C° 0.1 mm 5 mps 762 mmHg 89%
    18:00 +5°C° 0.1 mm 4 mps 762 mmHg 91%
    19:00 +5°C° 0 mm 4 mps 762 mmHg 92%
    20:00 +5°C° 0 mm 4 mps 762 mmHg 92%
    21:00 +5°C° 0 mm 4 mps 762 mmHg 93%
    22:00 +5°C° 0 mm 4 mps 761 mmHg 93%
    23:00 +5°C° 0 mm 4 mps 761 mmHg 94%
    Show more